Location: Cuzcurrita-R�o Tir�n
(42.5415°N, 2.9642°W)
Time: 02:11:56
(UTC+00:00)

ATLAS 2AS CENTAUR R/B - Pass Details

Date: 27 February 2020
Orbit: 929 x 1283 km, 63.7° (Epoch: 03 April)

Event Time Altitude Azimuth Distance (km) Brightness Sun altitude
Rises 21:35:17 0° 224° (SW) 4,179 5.9 -39.5°
Reaches altitude 10° 21:38:04 10° 227° (SW) 3,241 5.3 -40.0°
Enters shadow 21:41:20 28° 235° (SW) 2,208 4.4 -40.5°
